Location: Gwatt
(46.7204°N, 7.6223°E)
Time: 07:35:02
(UTC+00:00)

Vanguard 2 - Pass Details

Date: 29 January 2021
Orbit: 552 x 2938 km, 32.9° (Epoch: 24 February)

Event Time Altitude Azimuth Distance (km) Brightness Sun altitude
Rises 16:02:37 0° 237° (WSW) 2,811 13.8 3.1°
Reaches altitude 10° 16:06:09 10° 206° (SSW) 1,819 10.5 2.6°
Maximum altitude 16:07:47 12° 181° (S) 1,680 9.8 2.3°
Drops below altitude 10° 16:09:28 10° 156° (SSE) 1,849 9.6 2.1°
Sets 16:13:07 0° 125° (SE) 2,914 10.2 1.5°
